Dewpoint
66 69 70 70 70 69 69 68 69 69 69 69 69 68 68 69 69 68 66 63 64 65 66 67 67 66 65 64 67 65 63 66 65 62 61 63 67 66 65 66 66 64 64
68 68 70 70 70 70 70 69 69 69 69 69 69 69 69 69 68 68 68 68 65 64 65 65 66 67 67 65 67 66 64 64 66 63 61 59 66 67 67 66 66 65 64
65 68 70 71 71 70 70 70 69 68 67 65 65 65 66 66 67 68 68 68 68 67 66 66 66 65 67 68 66 67 65 64 65 64 62 62 62 66 66 66 66 65 64
63 67 69 70 69 68 67 65 64 63 62 62 62 61 61 61 62 63 64 65 66 67 68 68 67 67 67 68 67 67 66 65 65 65 63 60 59 61 64 65 65 65 65
61 66 67 66 64 62 61 60 59 59 59 58 57 57 57 57 57 59 59 59 60 62 64 66 67 67 67 67 68 68 67 66 65 64 63 60 58 61 60 61 63 64 65
58 60 62 61 59 59 59 58 57 56 56 55 55 55 54 54 55 56 57 56 57 58 59 61 62 65 67 67 66 67 68 68 67 65 61 59 59 62 62 62 62 63 64
52 56 58 57 58 57 57 56 55 54 53 53 53 53 52 52 51 52 53 53 55 56 57 57 58 59 62 65 67 67 66 67 67 66 63 60 59 62 63 62 64 63 64
50 50 51 53 56 56 55 54 54 53 52 51 51 51 50 50 50 50 51 50 53 54 55 55 55 56 57 58 64 66 67 66 66 66 65 64 60 62 63 62 63 64 64
50 49 49 49 50 54 53 52 52 51 51 50 49 50 49 51 51 50 49 53 51 52 53 53 54 54 55 56 56 58 64 64 66 65 65 65 64 63 63 62 63 65 65
48 47 46 46 47 52 52 49 49 48 47 47 47 47 45 47 51 51 49 49 49 51 52 52 52 52 53 54 54 54 54 60 63 65 65 66 65 64 62 62 63 64 65
49 45 42 44 44 44 45 46 49 48 46 47 46 46 42 40 41 41 44 46 49 51 51 50 52 52 53 53 52 50 51 51 55 61 66 66 65 65 65 64 63 63 63
35 36 35 37 40 43 43 44 45 43 42 41 40 40 41 40 41 42 43 45 49 50 51 49 51 52 54 52 48 47 52 46 46 49 61 65 65 65 65 65 65 66 65
39 39 40 39 41 44 45 43 44 42 41 41 40 40 40 40 40 39 37 40 39 38 40 37 38 38 39 38 42 45 43 40 40 41 46 63 63 65 66 66 66 66 66
39 39 41 41 42 45 45 44 43 42 40 41 40 39 38 38 37 35 34 34 34 34 33 34 35 35 34 34 34 38 42 43 43 40 40 56 63 64 63 63 66 66 66
41 43 43 43 43 43 44 44 43 41 41 41 41 39 37 36 35 36 35 34 34 34 34 35 35 35 35 35 34 32 36 41 43 44 43 56 61 61 60 60 60 60 62
43 44 44 45 45 44 44 44 43 43 41 41 40 38 36 36 36 35 35 34 33 34 35 36 36 36 37 36 36 36 32 35 41 43 45 47 56 55 52 51 53 55 57
43 44 43 43 45 45 44 44 43 42 42 41 39 39 36 36 36 35 34 33 33 36 37 38 39 40 40 41 40 38 37 33 35 38 43 44 47 51 50 51 50 51 52
42 42 44 44 45 45 45 44 43 43 42 41 40 40 38 36 34 34 34 33 35 37 38 39 40 41 42 43 42 42 42 41 40 41 43 43 44 45 52 52 52 51 52
42 43 43 43 44 45 46 46 45 44 43 42 41 41 40 38 35 33 33 34 36 37 38 39 40 42 42 43 44 43 43 42 43 44 44 43 44 45 46 53 50 50 51
40 41 41 42 42 41 43 46 46 45 45 44 43 42 40 39 37 36 35 36 37 37 36 38 39 41 43 44 44 44 45 46 46 46 45 45 46 46 46 47 49 50 53
36 37 37 38 39 40 41 41 42 42 43 43 45 44 42 39 37 37 35 37 37 36 36 38 39 40 42 44 44 45 46 45 46 46 46 46 45 45 45 45 46 49 48
36 38 37 38 38 40 40 41 42 43 44 44 45 45 43 41 39 38 35 37 36 35 37 38 39 40 42 42 44 44 44 45 45 44 45 45 45 45 45 44 45 44 44
36 38 37 38 38 39 39 40 41 42 42 44 45 46 45 42 41 40 37 37 36 36 36 38 38 38 39 41 43 44 42 42 42 44 44 44 44 44 44 45 45 44 43
34 37 39 39 39 39 39 38 39 39 39 41 41 42 43 44 43 41 38 36 36 36 36 38 38 39 39 39 42 42 43 44 41 38 42 44 44 43 42 43 43 44 43
35 37 38 39 39 38 37 37 38 39 40 41 40 41 42 42 43 41 38 36 36 37 37 37 38 38 39 39 40 41 41 41 42 39 38 39 40 40 40 40 41 42 42
36 37 38 38 36 35 35 37 37 37 38 39 40 40 41 41 43 41 38 36 35 35 36 37 37 37 40 40 41 40 40 39 42 40 38 38 38 39 38 38 39 40 42
Wind_Speed
12 12 8 4 1 1 2 3 5 8 4 5 5 7 7 6 6 6 6 6 5 6 6 7 5 4 4 3 2 1 2 1 2 3 3 2 5 5 4 1 2 6 7
17 13 9 7 5 3 4 4 6 7 8 9 10 10 10 9 9 8 8 7 6 6 7 7 8 7 5 4 5 3 2 2 2 2 3 3 3 7 5 3 2 6 7
19 16 13 13 12 11 10 11 11 12 12 12 12 12 12 12 13 13 9 9 9 9 9 9 8 7 6 6 6 5 5 4 5 5 7 7 7 8 6 5 5 4 4
15 16 13 14 12 13 12 12 12 11 10 10 10 10 11 11 11 11 11 10 10 11 10 11 12 10 9 7 10 9 8 7 6 7 10 11 15 11 8 4 5 4 3
10 17 14 13 12 12 11 10 10 10 10 11 11 11 11 12 12 11 11 11 11 11 12 12 12 14 12 11 10 12 11 10 9 9 12 14 3 10 10 8 6 5 6
12 17 12 12 11 10 9 9 9 9 9 10 10 11 11 11 11 11 11 11 11 11 11 12 12 12 10 13 13 13 14 13 12 11 13 17 8 9 8 9 8 5 8
15 17 11 10 9 9 9 8 8 9 9 9 9 9 9 10 10 10 10 11 11 11 11 11 11 11 12 11 10 14 15 15 13 13 16 17 12 12 10 9 10 9 10
12 10 12 9 8 8 7 7 7 7 7 8 8 8 9 8 8 8 9 9 11 12 12 12 11 11 10 11 12 10 8 13 14 15 16 13 15 16 13 10 11 12 10
9 4 7 11 9 8 8 6 5 5 6 5 6 7 9 7 6 6 7 6 11 12 12 12 12 12 12 12 12 12 11 9 10 12 16 14 10 18 15 13 12 13 14
4 3 1 1 9 12 8 7 3 2 2 2 3 5 12 12 8 4 7 8 10 11 12 13 14 14 14 15 16 14 13 12 12 14 15 15 19 15 17 16 15 14 14
4 4 6 3 5 3 3 6 4 3 3 5 5 5 13 9 10 9 6 7 8 9 11 13 12 13 15 17 19 20 16 12 14 14 15 20 20 17 18 16 15 15 15
10 9 6 8 8 5 4 3 3 1 4 5 6 8 11 11 10 11 10 10 8 11 12 15 12 16 15 13 14 16 13 15 15 15 13 23 21 17 18 15 15 15 16
8 7 6 5 6 5 3 3 3 4 6 5 7 8 9 10 10 11 11 9 10 11 9 13 13 14 14 13 14 15 12 12 11 12 9 9 11 11 8 10 12 15 16
7 7 7 5 3 1 5 2 5 5 5 6 7 7 8 9 11 11 11 12 10 10 12 12 13 15 17 15 15 15 15 13 12 12 11 4 5 3 6 10 9 10 10
7 7 6 4 4 4 1 6 6 4 5 5 6 6 7 9 11 11 10 13 11 11 11 13 13 15 16 17 17 17 14 12 12 11 10 2 4 3 3 6 9 10 10
7 6 6 6 5 4 5 3 5 4 3 4 4 5 5 7 8 9 11 10 12 10 12 13 13 15 15 15 17 15 16 12 10 11 9 5 5 6 7 7 10 11 11
4 4 4 3 3 5 6 5 5 3 4 3 2 4 3 4 7 8 10 10 10 9 12 11 13 14 15 15 16 16 15 12 8 8 8 8 3 8 8 7 9 11 11
2 3 4 3 3 4 6 6 7 5 3 5 2 4 5 4 5 7 9 10 9 9 10 11 10 12 14 14 15 15 13 11 9 8 6 3 1 1 3 8 6 6 8
1 3 5 5 4 5 7 8 8 8 4 6 4 4 3 6 5 6 9 10 9 9 10 10 10 12 14 14 14 13 11 10 7 5 6 6 5 2 0 4 4 5 5
2 2 3 4 5 7 8 9 9 9 8 8 5 4 1 4 6 7 9 9 9 8 10 10 10 12 15 16 11 15 16 6 3 5 4 2 4 2 2 3 5 3 4
4 2 2 3 5 6 7 9 7 8 10 10 8 5 2 5 4 6 8 8 8 8 10 11 9 12 15 13 11 13 6 4 5 3 3 6 3 4 5 6 4 4 3
5 3 1 3 4 5 4 6 6 8 8 9 10 9 6 5 5 5 6 7 8 8 9 9 10 9 8 15 8 7 4 1 3 3 2 4 4 2 1 1 5 5 4
6 4 1 2 4 6 4 6 8 9 9 6 8 7 9 6 5 5 6 6 7 7 7 8 8 8 8 9 12 3 6 5 11 3 4 3 1 2 2 1 2 4 3
4 3 3 3 5 6 5 7 8 9 10 8 10 5 6 6 7 5 4 6 6 6 6 5 7 9 6 5 8 9 6 4 4 6 3 3 2 3 6 3 5 4 3
4 1 2 4 5 5 4 5 7 9 10 11 11 11 8 8 7 6 4 5 5 5 5 6 6 7 7 1 0 4 7 12 6 4 5 10 8 15 13 15 10 5 4
6 4 2 4 5 4 5 5 7 9 10 11 11 11 10 6 3 5 5 5 6 6 4 3 4 6 6 7 3 4 3 3 8 4 5 12 14 10 18 14 12 8 4
Wind_Direction
108 118 108 86 49 310 331 345 353 21 348 332 333 330 322 317 314 312 309 306 312 310 304 303 291 279 299 308 260 312 333 359 43 32 14 50 45 143 126 41 21 114 111
125 112 97 68 39 33 39 26 30 18 19 20 17 10 359 351 329 300 289 290 285 282 284 285 290 302 262 268 249 231 241 268 262 274 290 275 101 107 103 86 94 132 116
127 111 83 68 62 64 60 56 51 47 44 39 32 26 23 21 18 16 354 319 303 285 279 281 279 279 274 263 241 230 238 244 253 259 267 257 202 128 113 97 134 124 125
89 91 79 71 68 66 63 59 55 51 48 42 35 28 22 19 18 16 16 10 4 354 335 302 284 272 261 262 231 227 231 229 235 256 271 271 203 158 156 151 135 157 175
77 81 77 77 75 73 70 68 61 52 44 37 31 25 21 18 18 16 12 11 9 6 355 350 333 289 278 263 237 227 229 229 223 237 262 269 278 179 172 179 188 187 193
96 93 84 84 83 84 79 70 61 52 43 34 26 19 13 10 8 5 7 5 3 3 359 357 349 352 334 288 266 247 232 226 223 230 245 263 211 164 189 190 207 199 191
106 115 103 96 95 88 79 71 60 49 39 30 22 13 4 358 355 354 354 354 354 352 349 348 347 347 345 328 320 272 254 234 219 228 242 244 207 186 196 205 214 210 209
94 108 125 125 112 102 89 71 61 50 34 23 16 7 353 342 341 343 346 345 349 343 338 335 333 333 332 329 323 310 301 260 230 230 253 263 218 199 199 203 220 222 219
105 106 153 152 146 144 125 99 65 42 31 25 14 3 341 323 304 331 336 3 342 331 326 322 319 317 314 311 309 307 300 281 265 247 241 254 244 189 201 208 217 225 231
110 157 224 98 172 168 153 124 120 61 11 354 340 338 331 315 276 319 28 338 332 327 323 315 309 306 302 299 294 286 282 274 254 250 255 252 250 223 213 211 216 225 236
165 72 38 346 333 141 168 149 175 229 268 295 331 332 339 357 350 357 313 302 308 309 308 308 302 300 293 286 278 270 258 259 255 242 234 240 241 236 219 209 215 227 234
12 3 351 11 344 8 298 82 182 295 21 2 14 13 344 341 343 323 301 285 294 300 291 320 299 295 283 278 277 284 239 250 251 255 242 232 237 232 228 230 219 224 236
357 345 21 22 340 342 8 347 357 17 32 335 26 6 346 344 333 332 354 349 341 326 326 339 324 324 320 321 315 306 289 287 288 296 316 205 219 231 225 243 256 249 248
24 19 9 21 317 21 334 5 11 13 6 14 355 6 9 343 338 350 344 342 328 340 333 336 334 321 317 316 307 290 284 296 300 301 308 292 230 238 258 259 277 276 262
53 47 39 34 55 24 20 20 356 5 14 355 357 2 12 346 342 343 334 326 341 341 338 335 331 321 320 313 306 303 297 287 289 303 308 269 185 202 228 257 271 279 274
68 64 62 52 28 13 354 19 331 344 355 330 343 350 5 350 328 329 331 335 331 335 345 330 324 318 313 307 300 300 299 293 273 271 290 310 222 224 230 253 260 264 264
84 84 53 80 8 1 330 359 308 286 315 313 323 320 324 333 321 327 323 324 319 340 328 330 327 331 321 318 310 301 291 283 293 292 257 251 252 227 240 253 259 258 264
67 62 97 25 357 354 337 321 301 298 317 316 298 302 310 320 312 323 322 316 320 337 329 327 325 328 320 312 307 305 308 315 302 302 323 319 241 275 218 247 254 254 262
50 18 7 350 349 334 323 312 297 287 259 283 279 271 325 335 318 318 314 312 326 332 325 324 340 325 320 313 309 307 302 290 293 320 329 326 333 292 255 160 222 257 258
59 11 311 352 349 351 317 301 298 295 262 247 249 259 119 296 313 316 312 315 324 330 331 336 331 333 322 312 326 304 286 277 307 281 283 314 69 42 230 227 212 198 180
127 60 45 29 15 2 349 335 332 322 329 332 344 339 305 260 270 301 304 316 333 335 336 332 340 346 335 345 338 336 280 198 241 212 231 120 104 59 38 29 36 158 196
149 132 82 47 2 350 348 323 298 291 282 280 289 280 270 265 286 290 312 319 328 334 337 339 343 346 337 354 1 315 311 234 255 194 90 91 97 52 100 25 358 5 20
162 162 232 332 333 328 351 326 318 322 325 301 287 266 251 223 253 265 288 310 320 332 337 333 336 342 341 352 0 340 347 2 339 172 179 206 161 317 290 343 310 275 288
145 150 239 309 320 316 347 333 326 319 316 316 313 300 303 271 237 239 278 300 309 315 325 338 357 333 324 13 345 0 335 324 341 335 345 238 248 308 337 321 302 287 290
145 202 282 294 302 303 342 331 329 322 314 309 315 314 294 265 226 205 230 281 287 297 314 329 323 335 327 222 146 332 327 325 315 247 290 334 348 346 346 350 321 279 261
156 185 230 270 296 352 348 342 341 322 315 321 319 313 308 309 220 199 205 245 264 272 273 305 318 321 343 337 287 222 258 306 328 347 325 329 322 316 327 308 305 283 290